User: anonymous   Login
Location: South Tamworth Observatory
(43.8246°N, 71.3026°W)
Time: 06:51:04
(UTC-04:00)
Language:

Cosmos 1844 - Orbit

View from above orbital plane
View from above orbital plane
View from above satellite
View from above satellite

Ground track
Ground track

The orbit data is extracted from the following two-line orbital elements,

1 17973U 87041A   17206.26031515 -.00000189 +00000-0 -73533-4 0  9991
2 17973 070.8981 193.3274 0028705 066.1802 294.2324 14.14058626558322
Epoch (UTC): 25 July 2017 06:14:51
Eccentricity: 0.0028705
inclination: 70.8981°
perigee height: 825 km
apogee height: 866 km
right ascension of ascending node: 193.3274°
argument of perigee: 66.1802°
revolutions per day: 14.14058626
mean anomaly at epoch: 294.2324°
orbit number at epoch: 55832

The dashed part of the orbit path shows where the satellite is in the earth's shadow,  

DLR